Wind_Speed
45 44 42 40 39 39 40 40 41 41 42 43 45 46 48 50 52 53 54 54 53 53 53 53 53 54 55 55 56 57 57 58 58 59 59 60 60 61 62 63 65 66
47 47 45 44 43 43 43 43 43 44 44 45 46 47 49 50 51 52 53 53 53 53 54 54 55 56 56 57 58 59 59 59 60 60 60 61 61 62 63 65 67 69
50 50 49 49 48 47 46 47 47 47 46 46 47 49 50 50 50 51 51 52 53 54 55 56 57 57 58 58 59 60 60 60 61 61 62 62 63 65 67 69 72 74
52 52 52 52 51 51 51 51 50 49 49 49 49 50 50 50 49 49 49 50 51 52 54 55 57 58 58 59 60 60 60 60 61 62 63 65 67 69 72 74 76 77
54 55 55 55 55 55 55 54 53 53 52 51 50 50 51 52 52 52 51 51 51 52 53 54 56 57 58 59 59 59 60 60 62 64 66 69 71 73 75 77 78 78
57 57 57 58 58 58 58 58 57 56 54 52 51 52 53 55 56 56 55 54 54 54 54 55 56 56 58 59 59 60 62 63 65 68 70 73 74 76 77 77 77 76
60 60 60 60 61 61 61 61 60 59 55 53 54 55 57 57 57 56 56 55 55 55 56 56 57 58 59 60 61 63 65 67 69 71 74 75 76 76 76 76 75 73
63 63 64 65 65 65 64 63 63 61 58 56 57 58 58 58 56 56 55 56 56 57 58 59 60 60 61 62 63 66 68 70 72 74 75 75 75 75 74 72 71 69
65 66 68 69 70 69 68 66 66 65 63 62 61 61 59 57 57 57 57 57 58 59 60 61 62 62 63 65 67 69 71 73 75 75 74 73 72 71 69 68 66 66
67 68 70 72 72 72 69 68 68 68 68 67 65 63 61 59 58 59 59 59 60 61 62 62 64 65 66 68 70 72 74 75 75 73 72 70 68 66 65 63 63 63
69 70 71 71 71 70 69 69 71 71 70 69 66 64 62 61 61 61 61 62 62 63 64 66 67 68 70 72 74 75 75 74 73 71 69 67 65 63 62 62 62 63
71 72 71 69 67 67 68 69 70 70 69 67 65 64 63 63 63 63 64 65 66 66 67 68 69 71 73 75 75 75 74 72 71 69 67 65 63 62 61 62 63 64
73 74 71 68 66 66 66 67 67 67 66 64 64 64 65 65 65 66 67 68 68 67 68 70 72 74 75 76 75 74 73 71 69 67 65 63 62 61 62 63 63 64
75 75 72 70 69 68 66 65 64 64 63 63 64 65 66 67 68 69 69 69 68 69 70 72 74 75 76 75 73 72 70 67 65 63 62 61 61 61 62 62 61 62
74 74 73 72 71 69 67 65 65 65 65 65 66 67 68 69 70 70 69 69 70 71 73 73 74 73 72 71 69 67 65 62 60 59 59 59 60 61 61 61 60 61
73 73 73 72 70 69 69 68 68 69 68 68 69 70 70 70 70 70 70 70 71 72 72 71 69 68 66 65 64 61 59 58 57 57 58 58 59 60 61 61 61 61
71 70 70 70 70 70 70 70 69 69 69 70 70 70 70 70 69 70 70 70 70 69 67 65 63 62 61 60 59 57 56 55 56 56 57 58 59 59 60 60 61 61
67 68 70 71 72 72 71 70 69 69 69 69 69 69 70 70 70 70 69 68 67 64 61 59 58 58 57 57 56 55 55 55 56 57 57 58 57 57 58 59 60 61
71 72 73 74 74 74 73 72 70 68 67 68 69 69 69 69 69 68 67 65 63 60 57 56 56 56 56 56 55 55 55 55 56 56 55 54 54 54 55 57 58 59
74 73 72 73 74 75 74 71 67 65 66 67 68 68 68 68 68 67 66 65 62 58 56 55 56 56 56 56 56 55 54 54 53 52 50 50 50 52 54 56 57 57
74 73 72 72 72 71 68 65 63 63 64 65 66 67 68 68 68 67 66 63 59 57 56 56 57 57 57 57 56 54 52 51 49 48 47 47 48 50 52 54 55 55
74 74 73 72 70 67 63 61 60 61 63 65 67 68 69 70 69 67 64 61 58 58 58 59 59 60 59 58 56 53 52 50 48 47 45 45 46 48 50 52 53 53
74 73 72 70 67 63 60 59 60 62 64 66 68 70 71 70 67 64 62 60 59 59 60 61 61 61 60 58 56 55 53 51 48 46 45 45 46 47 49 51 52 52
70 68 67 65 63 61 60 61 63 65 66 68 70 71 71 69 66 65 63 61 60 61 62 62 63 62 61 59 58 57 54 51 48 45 45 46 47 47 49 50 52 53
65 63 62 61 61 62 63 64 65 67 68 69 71 71 69 67 65 64 62 60 61 63 64 64 64 63 62 61 60 59 56 53 48 46 45 47 48 48 49 50 53 54
63 62 61 62 63 65 67 67 67 67 67 69 70 70 68 65 62 61 62 63 64 65 65 65 66 64 63 62 62 60 57 53 49 46 45 46 47 48 49 51 53 54
Wind_Direction
276 274 273 273 272 271 272 273 272 272 272 273 274 275 278 279 280 281 281 281 282 281 281 281 281 281 282 282 283 283 285 287 288 288 288 288 287 287 287 287 287 286
275 275 274 274 272 271 272 273 273 271 272 274 275 277 278 278 278 278 279 279 280 280 280 280 280 280 280 281 281 283 284 285 286 287 287 286 286 285 285 285 285 285
274 274 274 274 273 273 274 274 273 271 272 275 277 277 277 276 274 274 275 276 276 277 278 278 279 279 280 280 280 282 283 284 285 285 285 285 285 285 284 284 284 284
272 271 272 273 274 274 274 274 273 272 272 275 277 277 276 275 273 272 272 272 273 274 275 276 277 278 279 280 280 281 282 283 284 284 284 283 283 283 283 284 284 284
271 270 271 272 273 274 275 275 274 273 274 275 275 274 274 274 274 274 274 274 274 275 276 277 277 278 279 280 281 281 282 282 282 282 282 282 282 282 283 284 284 285
271 271 270 271 272 274 275 275 275 274 274 274 272 270 271 272 274 275 277 277 278 278 278 277 278 278 279 279 280 280 281 281 281 281 281 281 282 282 283 284 285 286
271 271 271 271 272 274 275 275 275 274 273 272 270 269 269 271 273 276 278 279 279 279 279 279 279 279 279 279 280 280 280 280 280 280 281 281 282 283 284 285 286 287
270 271 272 272 273 274 275 276 276 275 273 271 270 269 270 272 274 276 277 278 279 279 280 280 280 280 280 280 280 280 280 279 280 281 281 282 283 284 286 287 287 287
268 269 270 271 272 273 274 275 276 275 274 272 271 271 272 274 275 276 277 278 279 279 279 280 280 279 279 280 280 280 279 280 280 281 283 284 285 285 286 287 288 288
267 267 267 268 270 271 272 274 274 274 273 272 273 274 276 277 277 277 278 279 279 280 280 280 280 279 279 279 279 278 279 280 281 283 284 285 285 287 288 289 289 288
268 267 267 267 268 269 270 271 272 273 272 273 274 276 278 278 278 278 279 281 282 282 282 280 279 279 279 278 278 278 280 281 282 284 285 285 286 288 289 289 290 289
268 266 265 265 266 267 268 269 270 271 272 274 277 278 278 279 279 280 282 283 283 283 281 279 278 278 277 277 278 279 280 282 283 284 285 286 287 288 289 289 289 288
265 263 263 264 265 265 266 267 269 270 273 275 277 278 279 280 281 282 283 283 282 280 278 277 277 276 277 277 278 279 280 281 283 284 285 286 287 288 288 288 288 288
261 260 261 262 264 265 266 267 269 271 274 276 278 278 279 280 281 281 281 280 278 277 275 275 275 275 276 277 278 278 279 281 282 284 285 286 287 287 287 287 288 289
259 259 261 262 263 265 266 268 270 273 275 277 278 278 278 278 279 278 278 276 275 274 274 274 274 274 275 276 277 278 279 281 283 284 286 287 287 287 287 288 289 289
258 258 260 261 263 265 267 269 272 275 277 279 278 277 276 276 276 276 275 275 274 273 273 273 274 275 275 276 277 279 281 283 284 285 287 287 288 288 288 288 289 289
258 260 262 264 266 267 269 270 273 276 279 279 277 275 274 274 274 274 274 274 273 273 273 274 274 275 275 276 278 280 282 283 285 285 286 286 287 287 288 288 288 289
264 266 268 270 269 268 269 271 275 278 278 276 273 272 272 273 273 273 273 273 273 273 273 274 274 275 275 277 279 280 282 283 284 284 285 285 286 286 288 289 289 289
271 272 271 270 269 268 270 274 277 277 275 271 270 270 271 272 273 272 272 272 272 272 273 273 273 274 275 277 279 280 281 282 283 283 284 285 286 288 289 290 289 289
271 271 270 270 270 271 274 277 277 275 271 269 269 270 271 272 272 271 271 271 271 271 271 271 271 272 274 276 278 279 280 280 281 282 283 286 288 290 290 290 289 289
271 271 272 272 273 274 276 276 275 272 269 269 269 271 271 271 271 271 270 270 269 269 268 269 270 272 274 275 276 276 276 277 279 281 284 287 290 291 291 290 289 289
272 272 273 273 274 274 274 273 271 269 269 270 271 271 272 272 271 269 268 267 267 267 267 268 270 271 273 273 272 272 273 275 278 281 284 288 290 291 291 289 288 288
273 272 272 272 272 272 271 270 269 269 270 271 272 272 271 270 268 267 267 267 267 267 268 269 269 270 271 270 269 270 272 274 276 280 283 287 289 289 289 287 286 285
272 271 271 270 270 270 270 269 269 270 271 272 272 270 268 267 268 269 269 268 267 268 268 269 269 269 269 268 268 270 271 273 276 279 282 284 287 287 286 285 284 284
269 269 269 269 270 270 270 270 270 271 271 270 269 268 267 267 268 269 268 268 268 268 269 269 269 268 268 268 269 270 272 273 276 279 281 283 285 285 285 284 284 285
268 268 268 270 271 271 271 271 270 270 269 268 267 266 266 268 269 270 270 269 268 268 269 268 267 267 267 267 269 271 272 273 276 278 280 282 284 284 284 284 285 287
Height
5700 5700 5700 5700 5700 5700 5700 5699 5698 5698 5697 5696 5695 5694 5692 5691 5690 5689 5688 5687 5686 5686 5685 5685 5685 5684 5684 5683 5682 5682 5681 5680 5679 5678 5677 5676 5675 5674 5673 5672 5671 5669
5694 5693 5693 5693 5693 5693 5693 5692 5692 5691 5691 5690 5689 5688 5687 5686 5684 5683 5682 5681 5680 5679 5679 5678 5678 5677 5677 5676 5675 5674 5673 5673 5671 5670 5669 5668 5667 5665 5664 5663 5662 5660
5687 5687 5686 5686 5686 5686 5686 5686 5685 5685 5684 5683 5682 5681 5680 5679 5678 5677 5676 5675 5674 5673 5672 5672 5671 5670 5670 5669 5668 5667 5666 5665 5663 5662 5661 5659 5658 5656 5655 5654 5652 5651
5681 5680 5679 5679 5679 5679 5678 5679 5678 5678 5678 5677 5676 5674 5673 5672 5671 5671 5670 5669 5668 5667 5666 5665 5664 5663 5662 5661 5661 5660 5658 5657 5656 5654 5652 5651 5649 5647 5646 5644 5642 5641
5674 5673 5673 5672 5671 5671 5671 5671 5671 5670 5670 5670 5669 5667 5665 5664 5663 5662 5662 5661 5660 5660 5659 5658 5657 5656 5655 5654 5653 5652 5651 5649 5647 5645 5643 5642 5640 5638 5636 5635 5632 5630
5667 5666 5666 5665 5664 5663 5663 5663 5662 5663 5663 5662 5661 5660 5657 5656 5655 5654 5653 5653 5652 5651 5651 5650 5649 5648 5647 5646 5645 5644 5642 5641 5639 5637 5634 5632 5631 5629 5627 5625 5623 5620
5660 5659 5659 5658 5657 5656 5656 5654 5654 5655 5655 5654 5653 5651 5649 5648 5647 5646 5645 5644 5644 5643 5642 5641 5640 5639 5638 5638 5637 5635 5634 5632 5630 5628 5625 5623 5621 5619 5617 5615 5613 5611
5652 5652 5652 5650 5649 5649 5648 5646 5645 5646 5646 5645 5644 5642 5641 5640 5639 5638 5637 5636 5636 5634 5634 5633 5632 5631 5630 5629 5628 5626 5625 5623 5621 5618 5615 5613 5611 5609 5608 5606 5604 5602
5645 5645 5644 5642 5641 5640 5639 5638 5637 5637 5637 5636 5634 5633 5632 5632 5631 5630 5629 5628 5627 5626 5625 5624 5623 5622 5621 5620 5619 5617 5615 5613 5611 5608 5606 5603 5601 5599 5598 5597 5595 5593
5636 5636 5635 5633 5632 5631 5630 5629 5628 5628 5627 5625 5625 5624 5623 5623 5622 5620 5619 5619 5618 5617 5616 5615 5614 5613 5612 5611 5610 5608 5606 5603 5601 5599 5596 5594 5592 5590 5589 5588 5586 5584
5627 5626 5625 5624 5623 5622 5621 5620 5619 5618 5617 5616 5615 5615 5614 5613 5612 5611 5610 5609 5609 5608 5607 5606 5605 5604 5603 5602 5600 5598 5596 5593 5591 5589 5587 5585 5583 5582 5580 5579 5577 5575
5617 5616 5615 5614 5614 5613 5612 5610 5609 5609 5608 5607 5606 5606 5604 5603 5602 5601 5600 5599 5599 5598 5598 5597 5595 5594 5593 5592 5590 5588 5586 5584 5582 5580 5578 5577 5575 5573 5571 5570 5568 5566
5608 5606 5605 5605 5605 5604 5602 5601 5601 5600 5599 5598 5597 5596 5595 5594 5592 5591 5590 5590 5590 5590 5589 5587 5586 5585 5583 5582 5580 5578 5577 5575 5573 5572 5570 5568 5567 5565 5563 5561 5559 5556
5598 5596 5596 5596 5595 5593 5592 5592 5592 5592 5591 5590 5589 5588 5587 5585 5583 5582 5581 5581 5581 5581 5580 5578 5577 5576 5574 5573 5571 5570 5568 5567 5565 5564 5562 5560 5558 5556 5554 5552 5549 5547
5587 5586 5586 5586 5585 5584 5584 5583 5583 5582 5581 5581 5580 5578 5577 5575 5574 5572 5572 5572 5572 5571 5570 5569 5568 5567 5566 5564 5563 5561 5560 5558 5557 5555 5553 5551 5549 5547 5545 5542 5540 5538
5575 5576 5576 5576 5575 5575 5575 5574 5573 5572 5571 5571 5569 5568 5566 5565 5563 5562 5562 5562 5561 5560 5559 5559 5558 5557 5556 5555 5553 5552 5550 5549 5547 5546 5544 5542 5540 5538 5536 5534 5531 5529
5566 5566 5566 5566 5567 5567 5565 5564 5564 5563 5562 5560 5559 5557 5555 5554 5553 5552 5552 5551 5550 5550 5549 5549 5549 5547 5545 5544 5543 5542 5541 5539 5538 5537 5535 5533 5531 5529 5527 5525 5522 5520
5558 5558 5558 5558 5557 5557 5555 5554 5554 5553 5552 5550 5548 5547 5545 5544 5543 5542 5542 5541 5540 5540 5540 5539 5538 5536 5535 5535 5534 5533 5532 5531 5529 5528 5526 5524 5522 5520 5518 5515 5513 5512
5548 5547 5548 5548 5547 5546 5544 5544 5544 5543 5541 5540 5538 5536 5535 5534 5534 5533 5532 5532 5531 5530 5530 5529 5528 5526 5526 5526 5525 5524 5523 5522 5520 5519 5517 5515 5513 5511 5509 5506 5505 5503
5537 5536 5536 5537 5536 5535 5534 5533 5533 5532 5530 5529 5528 5526 5526 5525 5524 5523 5523 5522 5522 5521 5520 5519 5518 5517 5517 5517 5516 5515 5514 5513 5511 5510 5508 5506 5504 5502 5500 5498 5496 5495
5525 5524 5524 5524 5523 5523 5523 5522 5522 5521 5519 5519 5518 5517 5516 5515 5514 5514 5514 5513 5512 5511 5510 5510 5509 5508 5508 5508 5507 5506 5505 5504 5503 5501 5498 5496 5494 5492 5491 5490 5488 5486
5511 5511 5511 5511 5511 5512 5512 5511 5511 5510 5509 5509 5508 5507 5507 5506 5506 5505 5504 5503 5502 5501 5501 5501 5500 5500 5499 5499 5498 5497 5496 5496 5493 5491 5489 5487 5485 5483 5482 5481 5479 5478
5498 5498 5499 5499 5500 5500 5501 5501 5500 5500 5500 5500 5499 5498 5498 5497 5496 5495 5494 5494 5493 5492 5492 5491 5491 5491 5490 5490 5489 5487 5488 5487 5484 5481 5478 5476 5475 5474 5473 5472 5470 5469
5487 5488 5488 5489 5490 5490 5490 5490 5490 5490 5490 5490 5489 5489 5488 5487 5487 5486 5485 5484 5484 5483 5483 5482 5482 5482 5481 5480 5479 5478 5478 5478 5475 5472 5469 5466 5465 5465 5464 5463 5461 5460
5477 5477 5478 5479 5480 5480 5480 5480 5480 5480 5480 5480 5479 5479 5479 5478 5478 5477 5475 5475 5474 5473 5473 5473 5473 5473 5472 5471 5470 5469 5469 5468 5466 5463 5460 5457 5457 5456 5456 5455 5452 5450
5466 5467 5468 5469 5469 5469 5469 5469 5470 5470 5470 5470 5469 5469 5469 5468 5468 5468 5467 5465 5464 5464 5464 5464 5463 5463 5462 5461 5460 5460 5460 5458 5456 5454 5452 5449 5448 5448 5447 5446 5443 5440